伽利略0201星导航星座 (GSAT0201 (GALILEO 5))

导读 | 星芒AI

GSAT0201,又称GALILEO 5,是欧洲伽利略卫星导航系统的一部分。该卫星由空中客车防务与航天公司制造,于2014年10月15日通过阿丽亚娜5号火箭从法属圭亚那库鲁发射升空。GALILEO 5运行在中地球轨道,旨在提供高精度的全球定位、导航和授时服务。伽利略系统独立于美国的GPS,由欧盟和欧洲航天局联合开发,旨在增强欧洲在卫星导航领域的自主性和竞争力。

基本信息
目录编号:
40128
目录名称:
GALILEO 5 (261)
国际标识:
2014-050A
轨道中心:
EARTH
卫星名称:
伽利略0201星
卫星全名:
伽利略0201星导航星座 (GSAT0201 (GALILEO 5))
卫星状态:
在轨 (已飞行4075 天)
发射日期:
2014-08-22 UTC
国别 :
(ESA)
星等 :
--
轨道信息
数据来源 国际轨道数据
星历时间: 2025-10-14T10:24:05+0800
4天前
查看轨道信息
半长轴: 27977.504km
偏心率: 0.1642437
轨道倾角: 49.145°
近地点辐角 170.014°
升交点赤经 283.492°
平近点角 193.708°
近地点: 17004.24km
远地点: 26194.498km
周期: 776.199分钟
每日圈数: 1.855194
详细信息
平衡模式:
三轴稳定
覆盖范围:
全球
运营商:
欧盟空间计划局
运营商所在国:
法国大都会
使用方式:
暂无
卫星简介
伽利略定位系统(Galileo)是一个全球导航卫星系统,于2016年投入使用由欧盟通过ESA创建,由欧盟空间计划局(EUSPA)运营。该系统有两个地面操控站,并且在高纬度地区提供比其他系统更好的定位服务。该卫星仍在工作。
2D轨道图
3D轨道图
轨道高度分析图
轨道倾角分析图
轨道综合分析图
查看轨道综合分析图